Tracking 35334 objects as of 13-Sep-2026
HD Live streaming from Space Station
objects crossing your sky now

ARIANE 44L+ DEB


ARIANE 44L+ DEB is no longer on orbit


NORAD ID: 22851
Int'l Code: 1992-021F
Launch date: April 15, 1992
Source: France (FR)
Launch site: FRENCH GUIANA (FRGUI)
Decay date: 2002-08-29

Note: This is SATELLITE DEBRIS
Your satellite tracking list
Your tracking list is empty




NASA's NSSDC Master Catalog

Two Line Element Set (TLE):
1 22851U 92021F   02241.30511008  .54462879  00000-0  00000+0 0  9993
2 22851 003.9985 096.0765 0491361 007.0542 346.2539 15.74974368111020
Source of the keplerian elements: AFSPC